Tulsa Jones, OK

5:07 PM CDT on August 23, 2017 (GMT -0500)
Jones Jr.

Weather History for KRVS - February, 2013

Change the Weather History Date:

Friday, February 15, 2013

  Actual Average (KTUL) Record (KTUL)
Temperature  
Mean Temperature 36 °F -  
Max Temperature 45 °F 48 °F 80 °F (1976)
Min Temperature 28 °F 30 °F 3 °F (1905)
Degree Days  
Heating Degree Days 28    
Moisture  
Dew Point 17 °F    
Average Humidity 47    
Maximum Humidity 67    
Minimum Humidity 22    
Precipitation  
Precipitation 0.00 in - - ()
Sea Level Pressure  
Sea Level Pressure 30.37 in    
Wind  
Wind Speed 7 mph (North)    
Max Wind Speed 13 mph    
Max Gust Speed 22 mph    
Visibility 10 miles    
Events      
Averages and records for this station are not official NWS values.
T = Trace of Precipitation, MM = Missing Value Source: NWS Daily Summary

Daily Weather History Graph

Daily Weather History Graph

Search for Another Location

Airport or City:

Trip Planner

Search our weather history database for the weather conditions in past years. The results will help you decide how hot, cold, wet, or windy it might be!

Date:

Astronomy

Feb. 15, 2013 Rise Set
Actual Time 7:10 AM CST 6:05 PM CST
Civil Twilight 6:44 AM CST 6:31 PM CST
Nautical Twilight 6:14 AM CST 7:01 PM CST
Astronomical Twilight 5:44 AM CST 7:31 PM CST
Moon 9:59 AM CST (2/15) 11:54 PM CST (2/15)
Length of Visible Light 11h 47m
Length of Day
10h 54m
Waxing Crescent, 30% of the Moon is Illuminated
Feb 15
Waxing Crescent
Feb 17
First Quarter
Feb 25
Full
Mar 4
Last Quarter
Mar 11
New

Hourly Weather History & Observations

Time (CST) Temp. Windchill Dew Point Humidity Pressure Visibility Wind Dir Wind Speed Gust Speed Precip Events Conditions
12:53 AM 43.0 °F 41.3 °F 30.0 °F 60% 30.25 in 10.0 mi WNW 3.5 mph - N/A   Partly Cloudy
1:53 AM 42.1 °F 37.1 °F 27.0 °F 55% 30.28 in 10.0 mi NNW 8.1 mph 17.3 mph N/A   Partly Cloudy
2:53 AM 39.9 °F 35.8 °F 21.9 °F 49% 30.30 in 10.0 mi NNW 5.8 mph - N/A   Clear
3:53 AM 37.9 °F 30.0 °F 19.9 °F 48% 30.32 in 10.0 mi North 12.7 mph 18.4 mph N/A   Scattered Clouds
4:53 AM 35.1 °F 26.9 °F 19.9 °F 54% 30.34 in 10.0 mi North 11.5 mph 21.9 mph N/A   Clear
5:53 AM 32.0 °F 25.6 °F 21.0 °F 64% 30.37 in 10.0 mi North 6.9 mph 18.4 mph N/A   Clear
6:53 AM 30.9 °F 26.2 °F 21.0 °F 67% 30.39 in 10.0 mi Variable 4.6 mph - N/A   Clear
7:53 AM 30.9 °F 22.2 °F 21.0 °F 67% 30.41 in 10.0 mi North 10.4 mph 18.4 mph N/A   Clear
8:53 AM 33.1 °F 26.1 °F 21.0 °F 61% 30.43 in 10.0 mi North 8.1 mph - N/A   Clear
9:53 AM 34.0 °F 26.0 °F 19.9 °F 56% 30.45 in 10.0 mi North 10.4 mph 16.1 mph N/A   Clear
10:53 AM 37.0 °F 31.0 °F 19.0 °F 48% 30.45 in 10.0 mi North 8.1 mph - N/A   Clear
11:53 AM 39.9 °F 32.5 °F 16.0 °F 38% 30.43 in 10.0 mi North 12.7 mph 20.7 mph N/A   Clear
12:53 PM 41.0 °F 36.4 °F 12.0 °F 31% 30.41 in 10.0 mi NE 6.9 mph - N/A   Clear
1:53 PM 43.0 °F 38.2 °F 10.0 °F 26% 30.39 in 10.0 mi North 8.1 mph 18.4 mph N/A   Clear
2:53 PM 44.1 °F 41.5 °F 10.0 °F 25% 30.38 in 10.0 mi Variable 4.6 mph - N/A   Clear
3:53 PM 44.1 °F 39.0 °F 7.0 °F 22% 30.36 in 10.0 mi North 9.2 mph 21.9 mph N/A   Clear
4:53 PM 45.0 °F 40.1 °F 8.1 °F 22% 30.36 in 10.0 mi North 9.2 mph - N/A   Clear
5:53 PM 42.1 °F 40.2 °F 8.1 °F 25% 30.37 in 10.0 mi NNW 3.5 mph - N/A   Clear
6:53 PM 39.9 °F 36.7 °F 10.0 °F 29% 30.38 in 10.0 mi NNW 4.6 mph - N/A   Clear
7:53 PM 36.0 °F - 12.9 °F 39% 30.38 in 10.0 mi Calm Calm - N/A   Clear
8:53 PM 28.9 °F - 16.0 °F 58% 30.38 in 10.0 mi Calm Calm - N/A   Clear
9:53 PM 28.9 °F - 16.0 °F 58% 30.38 in 10.0 mi Calm Calm - N/A   Clear
10:53 PM 28.0 °F - 16.0 °F 61% 30.38 in 10.0 mi Calm Calm - N/A   Partly Cloudy
11:53 PM 30.0 °F 26.5 °F 18.0 °F 61% 30.37 in 10.0 mi WSW 3.5 mph - N/A   Overcast